www.pogodaiklimat.ru

Погода и климат >> Архив погоды >> Австралия >> Charleville Aero


ПОГОДА в Charleville Aero

  • Прогноз погоды в Charleville Aero
  • Монитор погоды в Charleville Aero
  • Климат города

АРХИВ ПОГОДЫ в Charleville Aero

Время (UTC), дата Ветер
(напр.,м/с)
 
Видим.   Явления Облачность Т
(С)
Тd
(С)
f
(%)
Тe
(С)
Тes
(С)
Комфортность P
(гПа)
Po
(гПа)
Тmin
(С)
Tmax
(С)
R
(мм)
R24
(мм)
S
(см)
23 17.05 ЮВ 3 н/о н/о +14.5 -2.8 30 +14 +14 1023.9 988.2
00 18.05 ЮВ 5 н/о н/о +18.0 -1.3 27 +18 +18 1024.0 988.3
02 18.05 ЮВ 5 н/о н/о +22.1 -1.2 21 +21 +21 комфорт 1022.3 986.6 +6.5
03 18.05 ЮВ 3 н/о н/о +22.9 -1.2 20 +22 +22 комфорт 1021.6 985.9
05 18.05 Ю 5 н/о н/о +23.5 -2.9 17 +22 +22 комфорт 1020.3 984.7
06 18.05 Ю 5 н/о н/о +23.5 -2.9 17 +22 +22 комфорт 1020.3 984.7
08 18.05 Ю 3 н/о н/о +19.4 -4.1 20 +19 +19 1020.8 985.2
09 18.05 Ю 3 н/о н/о +17.0 -3.7 24 +17 +17 1021.3 985.7
11 18.05 Ю 4 н/о н/о +14.5 -4.2 27 +14 +14 1022.2 986.5
12 18.05 Ю 3 н/о н/о +13.4 -3.8 30 +13 +13 1022.4 986.7
14 18.05 Ю 3 н/о н/о +8.9 -3.3 42 +7 +7 1022.1 986.4 +24.5
15 18.05 штиль 0 н/о н/о +7.8 -3.1 46 +8 +8 1022.0 986.3
17 18.05 Ю 1 н/о н/о +7.3 -3.0 48 +8 +8 1021.7 986.0
18 18.05 штиль 0 н/о н/о +6.0 -2.8 53 +6 +6 1022.1 986.4
20 18.05 штиль 0 н/о н/о +4.6 -2.5 60 +4 +4 1022.4 986.7
21 18.05 штиль 0 н/о н/о +10.8 -2.5 39 +11 +11 1023.3 987.6
23 18.05 ЮВ 3 н/о н/о +14.8 -0.5 35 +14 +14 1024.0 988.3
00 19.05 ЮВ 6 н/о н/о +17.6 -0.2 30 +17 +17 1023.9 988.2
02 19.05 ЮВ 4 н/о н/о +20.2 -1.0 24 +20 +20 1022.4 986.7 +4.2
03 19.05 ЮВ 3 н/о н/о +21.6 -2.3 20 +21 +21 комфорт 1021.4 985.8
05 19.05 Ю 5 н/о н/о +23.1 -2.5 18 +22 +22 комфорт 1020.3 984.7
06 19.05 Ю 4 н/о н/о +22.3 -4.7 16 +21 +21 комфорт 1020.1 984.5
08 19.05 Ю 2 н/о н/о +18.0 -4.0 22 +19 +19 1021.1 985.5
09 19.05 Ю 3 н/о н/о +16.5 -1.6 29 +16 +16 1021.8 986.1
11 19.05 Ю 2 н/о н/о +12.7 -2.0 36 +12 +12 1023.0 987.3
12 19.05 Ю 2 н/о н/о +11.2 -1.2 42 +10 +10 1023.1 987.4
14 19.05 ЮВ 2 н/о н/о +9.6 -0.3 50 +8 +8 1022.9 987.2 +23.1
15 19.05 ЮВ 2 н/о н/о +9.7 +1.8 58 +8 +8 1022.6 986.9
17 19.05 Ю 2 н/о н/о +8.8 +1.9 62 +7 +7 1022.2 986.5
18 19.05 ЮВ 3 н/о н/о +9.9 +3.9 66 +8 +8 1022.3 986.6
20 19.05 штиль 0 н/о н/о +6.2 +1.7 73 +5 +5 1023.4 987.7
21 19.05 штиль 0 н/о н/о +5.5 +1.2 74 +5 +5 1024.0 988.3
23 19.05 ЮВ 4 н/о н/о +14.4 +3.2 47 +13 +13 1025.1 989.3
00 20.05 ЮВ 5 н/о н/о +17.6 +3.9 40 +17 +17 1025.0 989.2
02 20.05 Ю 5 н/о н/о +19.9 +1.4 29 +20 +20 1023.5 987.8 +5.5
03 20.05 ЮВ 4 н/о н/о +20.6 +1.5 28 +21 +21 комфорт 1022.4 986.7
05 20.05 Ю 4 н/о н/о +21.4 0.0 24 +21 +21 комфорт 1021.4 985.8
06 20.05 Ю 4 н/о н/о +21.4 0.0 24 +21 +21 комфорт 1021.6 985.9
08 20.05 Ю 3 н/о н/о +17.8 0.0 30 +18 +18 1022.5 986.8
09 20.05 Ю 3 н/о н/о +16.0 +0.6 35 +16 +16 1023.1 987.4
11 20.05 Ю 4 н/о н/о +14.0 -0.4 37 +13 +13 1024.3 988.6
12 20.05 Ю 3 н/о н/о +12.1 -0.7 41 +11 +11 1024.7 988.9
14 20.05 Ю 3 н/о н/о +8.6 -0.9 51 +7 +7 1024.6 988.8 +22.2
15 20.05 ЮВ 2 н/о н/о +7.8 -1.4 52 +6 +6 1024.6 988.8
17 20.05 штиль 0 н/о н/о +5.0 -1.9 61 +4 +4 1023.8 988.1
18 20.05 Ю 1 н/о н/о +4.4 -2.0 63 +3 +3 1023.9 988.2
20 20.05 Ю 2 н/о н/о +4.0 -1.8 66 +1 +1 1024.5 988.7
21 20.05 Ю 2 н/о н/о +3.6 -1.9 67 +1 +1 1025.1 989.3
23 20.05 ЮВ 4 н/о н/о +13.8 +0.8 41 +13 +13 1026.0 990.2
00 21.05 ЮВ 5 н/о н/о +16.5 +0.2 33 +16 +16 1026.0 990.2
02 21.05 ЮВ 5 н/о н/о +20.0 +1.4 29 +20 +20 1024.7 988.9 +3.6
03 21.05 ЮВ 5 н/о н/о +21.2 +1.5 27 +21 +21 комфорт 1023.7 988.0
05 21.05 Ю 7 н/о н/о +21.9 +1.6 26 +22 +22 комфорт 1022.8 987.1
06 21.05 ЮВ 6 н/о н/о +21.4 +1.7 27 +21 +21 комфорт 1023.0 987.3
08 21.05 Ю 4 н/о н/о +18.8 +2.2 33 +19 +19 1024.5 988.7
09 21.05 Ю 3 н/о н/о +15.7 +1.8 39 +16 +16 1025.1 989.3
11 21.05 штиль 0 н/о н/о +11.7 +2.2 52 +11 +11 1025.9 990.1
12 21.05 Ю 2 н/о н/о +10.2 +2.1 57 +9 +9 1026.0 990.2
14 21.05 Ю 3 н/о н/о +8.0 +1.2 62 +6 +6 1025.6 989.8 +22.4
15 21.05 Ю 2 н/о н/о +7.9 +1.7 65 +6 +6 1025.6 989.8
17 21.05 штиль 0 н/о н/о +6.2 +0.9 69 +6 +6 1025.5 989.7
18 21.05 Ю 4 н/о н/о +7.8 +3.1 72 +5 +5 1025.2 989.4
20 21.05 Ю 1 н/о н/о +5.0 +1.3 77 +4 +4 1025.5 989.7
21 21.05 штиль 0 н/о н/о +4.4 +1.3 80 +4 +4 1025.9 990.1
23 21.05 ЮВ 4 н/о н/о +13.9 +5.0 55 +13 +13 1026.3 990.5
00 22.05 ЮВ 6 н/о н/о +16.8 +5.4 47 +16 +16 1026.2 990.4
02 22.05 Ю 5 н/о н/о +19.4 +3.2 34 +20 +20 1024.7 988.9 +4.5
03 22.05 Ю 6 н/о н/о +20.4 +2.3 30 +20 +20 1023.7 988.0
05 22.05 Ю 5 н/о н/о +21.3 +1.0 26 +21 +21 комфорт 1022.5 986.8
06 22.05 Ю 5 н/о н/о +21.5 +1.7 27 +21 +21 комфорт 1022.3 986.6
08 22.05 Ю 3 н/о н/о +17.3 +0.9 33 +17 +17 1023.0 987.3
09 22.05 Ю 3 н/о н/о +14.5 +2.1 43 +14 +14 1024.0 988.3
11 22.05 Ю 4 н/о н/о +13.9 +2.5 46 +13 +13 1024.0 988.3
12 22.05 Ю 2 н/о н/о +11.0 +2.1 54 +10 +10 1024.3 988.6
14 22.05 Ю 2 н/о н/о +7.9 +1.3 63 +6 +6 1024.6 988.8 +22.2
15 22.05 ЮВ 2 н/о н/о +7.3 +1.6 67 +6 +6 1024.1 988.4
17 22.05 Ю 2 н/о н/о +6.0 +1.3 72 +4 +4 1023.1 987.4
18 22.05 Ю 2 н/о н/о +5.4 +1.1 74 +4 +4 1023.0 987.3
20 22.05 Ю 1 н/о н/о +5.4 +1.7 77 +4 +4 1023.6 987.9
21 22.05 Ю 2 н/о н/о +5.0 +1.5 78 +2 +2 1024.0 988.3
23 22.05 ЮВ 5 н/о н/о +14.4 +4.4 51 +13 +13 1024.7 988.9
00 23.05 ЮВ 6 н/о н/о +17.7 +5.6 45 +17 +17 1024.9 989.1
02 23.05 ЮВ 5 н/о н/о +20.5 +5.3 37 +21 +21 комфорт 1023.4 987.7 +4.9
03 23.05 Ю 6 н/о н/о +22.3 +5.3 33 +23 +23 комфорт 1022.0 986.3
05 23.05 ЮВ 6 н/о н/о +23.7 +5.1 30 +24 +24 комфорт 1020.5 984.9
06 23.05 ЮВ 6 н/о н/о +24.2 +5.1 29 +24 +24 комфорт 1020.3 984.7
08 23.05 ЮВ 3 н/о н/о +20.5 +4.9 36 +22 +22 комфорт 1021.3 985.7
09 23.05 ЮВ 3 н/о н/о +18.2 +5.4 43 +19 +19 1021.9 986.2
11 23.05 ЮВ 2 н/о 5/0
[]
+14.9 +5.4 53 +15 +15 1022.9 987.2
12 23.05 ЮВ 3 н/о н/о +13.7 +5.1 56 +13 +13 1023.1 987.4
14 23.05 ЮВ 3 н/о н/о +12.3 +5.5 63 +11 +11 1022.4 986.7 +24.6
15 23.05 ЮВ 4 н/о н/о +13.7 +6.1 60 +12 +12 1021.2 985.6
17 23.05 Ю 3 н/о н/о +10.4 +5.0 69 +9 +9 1020.9 985.3
18 23.05 Ю 2 н/о н/о +11.5 +5.4 66 +11 +11 1020.8 985.2
20 23.05 штиль 0 н/о 1/0
[]
+9.1 +4.7 74 +8 +8 1021.8 986.1
21 23.05 штиль 0 н/о н/о +9.0 +4.8 75 +8 +8 1022.4 986.7
23 23.05 ЮВ 1 н/о 3/0
[]
+14.0 +6.1 59 +15 +19 1022.6 986.9
00 24.05 СЗ 3 н/о н/о +16.7 +7.1 53 +17 +17 1022.8 987.1
02 24.05 З 2 н/о н/о +21.3 +4.8 34 +22 +22 комфорт 1021.6 985.9 +9.0
03 24.05 СЗ 2 н/о н/о +21.5 +4.1 32 +22 +22 комфорт 1020.5 984.9
05 24.05 Ю 2 н/о 1/0
[]
+21.3 +4.8 34 +22 +27 комфорт 1019.7 984.1
06 24.05 Ю 2 н/о н/о +21.0 +4.6 34 +22 +22 комфорт 1019.7 984.1
08 24.05 ЮЗ 3 н/о 9/0
[]
+18.3 +5.2 42 +19 +19 1020.8 985.2
09 24.05 ЮЗ 2 н/о н/о +16.3 +5.3 48 +17 +17 1021.2 985.6
11 24.05 Ю 2 н/о 6/0
[]
+13.4 +4.8 56 +13 +13 1021.7 986.0
12 24.05 Ю 3 н/о н/о +14.4 +6.0 57 +14 +14 1021.8 986.1
14 24.05 ЮВ 2 н/о 5/0
[]
+11.3 +4.1 61 +11 +11 1021.4 985.8 +22.1
15 24.05 штиль 0 н/о н/о +11.2 +4.7 64 +11 +11 1021.2 985.6
17 24.05 Ю 3 н/о 10/0
[]
+10.9 +4.8 66 +9 +9 1020.8 985.2
18 24.05 штиль 0 н/о н/о +10.9 +5.0 67 +10 +10 1021.1 985.5
20 24.05 штиль 0 н/о 10/0
[]
+10.6 +5.2 69 +10 +10 1021.2 985.6
21 24.05 Ю 2 н/о н/о +10.8 +5.3 69 +10 +10 1021.9 986.2

 

Местоположение метеостанции Charleville Aero (Квинсленд, Австралия): широта -26.41 долгота 146.26 высота над уровнем моря 303 м.

В архиве по умолчанию представлена погода в Charleville Aero за последнюю неделю. Архивные данные за месяц целиком и за предыдущие месяцы, начиная с января 2011 года, Вы можете получить, выбрав интересующий диапазон дат из раскрывающегося списка и нажав кнопку "Ввод!".


*Определитесь, кто Вы:
робот инопланетянин человек

Внимание! Время в таблицах - всемирное. Для получения местного времени необходимо прибавить поправку, которая в Charleville Aero равна 10 ч.

Смотрите также архив погоды в соседних городах и на ближайших метеорологических станциях:

Погода в Blackall Airport (Квинсленд, Австралия) (237 км)
Погода в Roma Airport (Квинсленд, Австралия) (251 км)
Погода в St George Airport (Квинсленд, Австралия) (295 км)
Погода в Thargomindah Airport (Квинсленд, Австралия) (299 км)
Погода в Lochington (Квинсленд, Австралия) (304 км)
Погода в Rolleston Airport (Квинсленд, Австралия) (321 км)
Погода в Emerald Airport (Квинсленд, Австралия) (371 км)
Погода в Longreach Airport (Квинсленд, Австралия) (387 км)
Погода в Miles Constance Street (Квинсленд, Австралия) (391 км)
Погода в Bourke Airport Aws (Новый Южный Уэльс, Австралия) (404 км)

Пояснения к столбцам:

Ветер - указаны скорость ветра в м/с - средняя за 10 мин, порывы в срок и между сроками (в фигурных скобках) и направление, откуда дует ветер: С - северный, СВ - северо-восточный, В - восточный, ЮВ - юго-восточный, Ю - южный, ЮЗ - юго-западный, З - западный, СЗ - северо-западный.
Видимость - горизонтальная дальность видимости в метрах или километрах. При видимости от 1 до 10 км при отсутствии осадков обычно наблюдается дымка, при ухудшении видимости до 1 км и менее - туман. В сухую погоду видимость может ухудшаться дымом, пылью или мглою.
Явления - указаны атмосферные явления, наблюдавшиеся в срок или в последний час перед сроком; фигурными скобками обозначены явления, наблюдавшиеся между сроками (за 1-3 часа до срока); квадратными скобками обозначены град или гололедные отложения с указанием их диаметра в мм.
Облачность - указаны через наклонную черту общая и нижняя облачность в баллах и высота нижней границы облаков в метрах; квадратными скобками обозначены формы облаков: Ci - перистые, Cs - перисто-слоистые, Cc - перисто-кучевые, Ac - высококучевые, As - высокослоистые, Sc - слоисто-кучевые, Ns - слоисто-дождевые, Cu - кучевые, Cb - кучево-дождевые. Подробнее классификацию облаков см. в Атласе облаков (PDF).
T - Температура воздуха - температура, измеренная на высоте 2 м над землей.
Td - Температура точки росы - температура, при понижении до которой содержащийся в воздухе водяной пар достигнет насыщения.
f - Относительная влажность воздуха - влажноcть воздуха, измеренная на высоте 2 м над землей.
Te - Эффективная температура - температура, которую ощущает одетый по сезону человек в тени. Характеристика душности погоды. При расчете учитывается влияние влажности воздуха и скорости ветра на теплоощущения человека.
Tes - Эффективная температура на солнце - температура, которую ощущает человек, с поправкой на солнечный нагрев. Характеристика знойности погоды. Зависит от высоты солнца над горизонтом, облачности и скорости ветра. Ночью, в пасмурную погоду, а также при ветре 12 м/с и более поправка равна нулю.
P - Атмосферное давление - приведенное к уровню моря атмосферное давление.
Po - Атмосферное давление - измеренное на уровне метеостанции атмосферное давление.
Tmin - Минимальная температура - минимум температуры воздуха на высоте 2 м над землей.
Tmax - Максимальная температура - максимум температуры воздуха на высоте 2 м над землей.
R - Количество осадков - Количество выпавших осадков за период времени, мм. При наведении курсора мыши на число - период времени, за который выпало указанное количество осадков.
R24 - Количество осадков - Количество выпавших осадков за 24 часа, мм.
S - Снежный покров - Высота снежного покрова, см. При наведении курсора мыши на число - состояние снежного покрова и степень покрытия местности в баллах.